Terminal Aerodrome Forecast
Issued by NWS Jackson, KY

Home | Current Version | Previous Version | Text Only | Print | Product List | Glossary On
Versions: 1 2 3 4 5 6 7 8 9 10 11 12 13 14 15 16 17 18 19 20
573
FTUS43 KJKL 221851 AAB
TAFLOZ
TAF AMD
KLOZ 221851Z 2219/2318 VRB04KT P6SM BKN035 OVC070
     FM222100 VRB04KT P6SM SCT025 SCT040 BKN100=

USA.gov is the U.S. government's official web portal to all federal, state and local government web resources and services.